CAPE
0 0 0 0 0 1 1 0 1 3 1 0 0 1 0 3 5 2 0 5 10 8 4 7 10 15 15 13 12 10 7 7 4 226 264 137 40 0
0 0 0 0 0 0 0 1 0 0 2 0 0 1 0 0 1 0 0 0 2 5 9 6 7 10 11 9 13 14 13 8 7 4 1 1 101 42
0 0 0 0 0 0 0 0 0 0 1 0 0 0 0 0 0 0 0 0 0 0 3 8 9 11 7 6 6 7 8 11 10 9 8 5 4 5
0 0 0 0 0 0 0 0 0 0 0 0 0 0 0 0 0 0 1 0 0 0 1 2 6 8 8 6 6 3 3 2 6 7 9 7 7 7
0 0 0 0 0 0 0 0 0 0 0 0 0 0 0 0 0 0 0 0 0 0 0 1 2 2 4 12 8 6 5 2 3 2 4 4 6 6
0 0 0 0 0 0 0 0 0 0 0 0 0 0 0 0 0 0 0 0 0 0 0 0 1 1 0 4 12 9 8 5 5 4 2 1 4 7
0 0 0 0 0 0 0 0 0 0 0 0 0 0 0 0 0 0 0 0 0 0 0 0 0 0 0 0 2 15 8 6 8 6 4 4 3 4
0 0 0 0 0 0 0 0 0 0 0 0 0 0 0 0 0 0 0 0 0 0 0 0 0 0 0 4 6 3 16 10 10 7 6 5 3 2
0 0 0 0 0 0 0 0 0 0 0 0 0 0 0 0 0 0 0 0 0 0 0 0 0 0 0 0 7 11 3 5 8 7 5 6 6 5
0 0 0 0 0 0 0 0 0 0 0 0 0 0 0 0 0 0 0 0 0 0 0 0 0 0 0 0 3 1 1 7 7 7 7 3 2 7
0 0 0 0 0 0 0 0 0 0 0 0 0 0 0 0 0 0 0 0 0 0 0 0 0 0 0 0 0 0 0 0 9 3 0 0 0 0
0 0 0 0 0 0 0 0 0 0 0 0 0 0 0 0 0 0 0 0 0 0 0 0 0 0 0 0 0 0 0 0 0 11 2 0 0 0
0 0 0 0 0 0 0 0 0 0 0 0 0 0 0 0 0 0 0 0 0 0 0 0 0 0 0 0 0 0 0 0 0 0 2 4 1 0
0 0 0 0 0 0 0 0 0 0 0 0 0 0 0 0 0 0 0 0 0 0 0 0 0 0 0 0 0 0 0 0 0 0 0 0 0 0
0 0 0 0 0 0 0 0 0 0 0 0 0 0 0 0 0 0 0 0 0 0 0 0 0 0 0 0 0 0 0 0 0 0 0 0 0 0
0 0 0 0 0 0 0 0 0 0 0 0 0 0 0 0 0 0 0 0 0 0 0 0 0 0 0 0 0 0 0 0 0 0 0 0 0 0
0 0 0 0 0 0 0 0 0 0 0 0 0 0 0 0 0 0 0 0 0 0 0 0 0 0 0 0 0 0 0 0 0 0 0 0 0 0
0 0 0 0 0 0 0 0 0 0 0 0 0 0 0 0 0 0 0 0 0 0 0 0 0 0 0 0 0 0 0 0 0 0 0 0 0 0
0 0 0 0 0 0 0 0 0 0 0 0 0 0 0 0 0 0 0 0 0 0 0 0 0 0 0 0 0 0 0 0 0 0 0 0 0 0
0 0 0 0 0 0 0 0 0 0 0 0 0 0 0 0 0 0 0 0 0 0 0 0 0 0 0 0 0 0 0 0 0 0 0 0 0 0
0 0 0 0 0 0 0 0 0 0 0 0 0 0 0 0 0 0 0 0 0 0 0 0 0 0 0 0 0 0 0 0 0 0 0 0 0 0
0 0 0 0 0 0 0 0 0 0 0 0 0 0 0 0 0 0 0 0 0 0 0 0 0 0 0 0 0 0 0 0 0 0 0 0 0 0
0 0 0 0 0 0 0 0 0 0 0 0 0 0 0 0 0 0 0 0 0 0 0 0 0 0 0 0 0 0 0 0 0 0 0 0 0 0
CIN
0 0 0 0 0 0 0 0 0 0 0 0 0 0 0 0 0 0 0 0 0 0 0 0 0 0 0 0 0 0 0 0 0 -27 -17 -24 -35 0
0 0 0 0 0 0 0 0 0 -1 0 -1 0 -1 0 0 0 0 0 0 -1 0 0 0 0 0 0 0 0 0 0 0 0 0 0 -10 -6 -29
0 0 0 0 0 0 0 0 0 -1 0 0 0 0 -1 0 0 0 0 0 0 -1 0 0 0 0 0 0 0 0 0 0 0 0 0 0 0 -18
0 0 0 0 0 0 0 0 0 0 0 0 0 0 0 0 0 0 0 0 0 0 0 0 0 0 0 0 0 0 0 0 0 0 0 0 0 0
0 0 0 0 0 0 0 0 0 0 0 0 0 0 0 0 0 0 0 0 0 0 0 0 -1 -1 0 0 0 0 0 0 0 0 0 0 0 0
0 0 0 0 0 0 0 0 0 0 0 0 0 0 0 0 0 0 0 0 0 0 0 0 0 0 -1 0 0 0 0 0 0 0 0 0 0 0
0 0 0 0 0 0 0 0 0 0 0 0 0 0 0 0 0 0 0 0 0 0 0 0 0 0 -1 0 -1 0 0 0 0 0 0 0 0 0
0 0 0 0 0 0 0 0 0 0 0 0 0 0 0 0 0 0 0 0 0 0 0 0 0 0 0 0 -1 0 0 0 0 0 0 0 0 0
0 0 0 0 0 0 0 0 0 0 0 0 0 0 0 0 0 0 0 0 0 0 0 0 0 0 0 0 -1 -1 0 0 0 0 0 0 0 0
0 0 0 0 0 0 0 0 0 0 0 0 0 0 0 0 0 0 0 0 0 0 0 0 0 0 0 0 -1 0 0 0 0 0 0 0 0 0
0 0 0 0 0 0 0 0 0 0 0 0 0 0 0 0 0 0 0 0 0 0 0 0 0 0 0 0 0 0 0 0 -1 -1 -1 0 0 0
0 0 0 0 0 0 0 0 0 0 0 0 0 0 0 0 0 0 0 0 0 0 0 0 0 0 0 0 0 0 0 0 0 -1 -1 0 0 0
0 0 0 0 0 0 0 0 0 0 0 0 0 0 0 0 0 0 0 0 0 0 0 0 0 0 0 0 0 0 0 0 0 0 -1 -1 -2 0
0 0 0 0 0 0 0 0 0 0 0 0 0 0 0 0 0 0 0 0 0 0 0 0 0 0 0 0 0 0 0 0 0 0 0 0 0 0
0 0 0 0 0 0 0 0 0 0 0 0 0 0 0 0 0 0 0 0 0 0 0 0 0 0 0 0 0 0 0 0 0 0 0 0 0 0
0 0 0 0 0 0 0 0 0 0 0 0 0 0 0 0 0 0 0 0 0 0 0 0 0 0 0 0 0 0 0 0 0 0 0 0 0 0
0 0 0 0 0 0 0 0 0 0 0 0 0 0 0 0 0 0 0 0 0 0 0 0 0 0 0 0 0 0 0 0 0 0 0 0 0 0
0 0 0 0 0 0 0 0 0 0 0 0 0 0 0 0 0 0 0 0 0 0 0 0 0 0 0 0 0 0 0 0 0 0 0 0 0 0
0 0 0 0 0 0 0 0 0 0 0 0 0 0 0 0 0 0 0 0 0 0 0 0 0 0 0 0 0 0 0 0 0 0 0 0 0 0
0 0 0 0 0 0 0 0 0 0 0 0 0 0 0 0 0 0 0 0 0 0 0 0 0 0 0 0 0 0 0 0 0 0 0 0 0 0
0 0 0 0 0 0 0 0 0 0 0 0 0 0 0 0 0 0 0 0 0 0 0 0 0 0 0 0 0 0 0 0 0 0 0 0 0 0
0 0 0 0 0 0 0 0 0 0 0 0 0 0 0 0 0 0 0 0 0 0 0 0 0 0 0 0 0 0 0 0 0 0 0 0 0 0
0 0 0 0 0 0 0 0 0 0 0 0 0 0 0 0 0 0 0 0 0 0 0 0 0 0 0 0 0 0 0 0 0 0 0 0 0 0
Wind_Speed
19 21 22 22 21 21 22 23 24 27 27 28 30 30 32 30 33 31 32 32 34 36 38 35 32 30 30 27 24 24 22 19 20 24 29 30 31 33
19 21 22 21 20 22 22 22 22 24 25 27 28 28 30 31 31 30 29 28 30 30 34 33 31 30 29 27 25 23 21 19 16 15 16 21 26 23
19 20 21 20 20 22 22 21 22 22 24 23 26 28 27 29 31 31 28 26 27 31 34 33 34 32 30 27 25 23 23 21 18 15 13 12 13 13
18 19 20 18 19 21 22 21 21 23 23 25 25 26 28 29 26 30 29 27 28 31 32 33 32 34 28 28 25 23 23 25 21 17 15 12 12 11
16 18 19 18 19 21 21 22 22 23 24 24 25 24 25 30 29 25 30 28 28 29 30 31 31 33 29 28 25 25 23 22 21 20 18 15 13 13
14 15 17 19 20 20 21 21 21 22 23 24 24 25 25 26 29 29 27 30 30 29 29 30 28 29 30 27 27 26 23 22 21 19 17 17 16 15
12 13 14 17 19 20 21 21 21 22 22 23 24 25 26 27 29 30 26 24 29 31 29 29 28 27 28 28 28 25 24 24 21 20 18 17 17 15
11 12 13 15 18 19 21 21 21 22 22 23 24 25 26 26 26 27 28 26 26 29 29 29 29 28 27 28 28 26 24 24 23 21 20 17 17 17
9 9 12 13 14 16 18 20 21 22 22 22 24 26 26 27 25 25 26 25 25 27 24 28 28 28 28 27 28 27 24 23 21 20 21 19 20 19
9 9 10 12 12 13 15 17 18 19 20 22 24 25 26 27 22 22 22 23 24 26 24 25 26 27 28 27 27 26 26 24 22 22 21 21 21 21
9 9 10 11 11 12 14 15 17 19 19 20 21 24 26 29 26 22 23 22 24 25 26 22 23 25 27 28 27 26 26 25 23 22 22 21 20 18
8 9 9 11 10 11 12 14 15 16 18 19 20 22 24 26 28 27 26 24 22 24 25 23 25 24 24 27 27 26 25 25 23 22 21 21 21 20
7 8 10 10 10 10 12 14 14 14 16 18 20 21 22 23 25 26 27 26 24 24 24 20 25 24 22 22 25 26 25 25 23 23 22 22 22 21
5 8 9 9 10 11 13 15 14 12 14 16 19 21 22 24 21 23 25 25 25 25 26 23 22 23 21 22 25 25 25 25 24 23 22 22 23 23
5 6 9 10 10 12 13 15 14 13 15 17 19 19 20 21 21 20 21 23 25 26 24 23 22 23 23 21 22 25 24 26 25 24 23 23 24 25
5 7 8 10 12 13 15 15 15 15 16 17 17 19 20 21 23 22 21 20 23 26 24 23 21 21 21 22 22 24 25 24 26 26 25 25 26 26
6 8 10 10 11 13 14 15 15 16 17 18 18 20 21 21 23 23 23 22 22 23 24 23 22 21 20 20 23 23 23 24 25 26 27 27 27 27
10 10 10 11 12 13 13 15 16 17 17 18 19 20 21 21 22 23 22 23 22 21 23 23 23 21 22 22 21 22 23 24 26 27 27 28 28 28
11 11 12 13 14 13 12 15 17 17 16 18 19 20 20 20 21 22 23 22 23 20 22 23 23 23 24 24 23 21 24 24 27 29 28 27 28 30
13 13 14 14 14 13 12 14 16 16 16 18 19 20 21 20 21 21 22 22 22 20 21 22 23 24 24 25 25 23 24 24 27 29 27 27 28 29
13 14 14 13 14 13 12 13 14 15 16 17 18 19 20 19 20 20 20 21 21 21 22 23 24 24 22 21 23 24 24 27 27 26 28 30 31 29
15 13 13 12 13 12 11 12 14 15 16 16 17 18 19 19 20 19 20 20 20 20 21 22 23 23 23 23 24 25 27 27 26 28 28 29 31 34
13 12 11 11 11 10 11 13 14 14 14 14 15 17 18 19 19 19 19 20 19 20 21 23 23 23 23 24 25 27 27 29 30 30 30 32 32 31
Wind_Direction
4 4 2 4 6 6 4 3 1 358 360 4 4 10 5 6 356 353 344 343 347 349 351 348 344 342 345 343 338 334 330 317 298 272 261 263 265 270
5 3 3 7 9 7 4 7 7 4 1 5 7 13 13 10 11 2 350 343 340 341 349 353 355 348 350 351 349 347 344 342 329 310 297 275 270 270
2 4 8 11 11 7 8 11 9 7 4 10 11 12 22 14 11 9 350 339 338 346 353 353 356 354 355 353 351 353 359 357 354 339 329 321 317 299
5 10 11 14 10 9 11 13 12 6 8 5 11 10 15 17 21 14 355 344 343 349 351 355 355 358 354 358 353 351 355 4 8 1 352 339 333 326
12 15 15 16 11 9 13 13 12 7 5 8 5 13 14 11 16 25 11 356 350 348 351 355 357 1 358 358 355 359 356 358 359 1 359 357 350 348
19 20 20 16 11 12 13 12 12 9 5 5 8 6 12 10 13 13 12 7 360 354 353 354 352 356 359 357 358 360 358 1 360 358 0 359 355 353
24 23 21 16 14 17 16 13 12 10 7 7 3 2 0 0 353 354 15 19 7 1 356 356 353 349 352 356 358 358 3 7 1 2 1 358 355 355
22 22 17 13 16 19 21 22 19 15 9 5 2 0 354 355 356 352 352 5 2 360 359 356 356 356 352 359 358 358 2 6 10 9 6 4 358 357
22 25 14 12 17 20 25 24 24 23 21 12 2 356 353 350 355 355 356 358 358 353 5 353 354 356 353 352 357 358 354 357 5 7 12 5 3 2
23 19 13 13 18 24 25 23 23 24 25 19 10 0 354 349 358 359 359 0 357 348 349 355 356 358 358 355 355 353 356 357 358 0 358 356 356 358
21 18 16 14 19 24 22 21 19 18 21 22 21 15 8 2 1 357 352 353 350 346 343 351 347 351 353 351 352 353 353 352 355 356 356 353 351 342
27 18 12 8 14 16 16 16 15 14 14 13 13 12 11 8 7 8 7 3 356 346 343 345 340 340 337 342 349 349 347 347 348 350 353 350 348 341
23 13 8 10 9 9 8 5 7 16 13 12 9 6 5 5 5 6 7 8 8 5 2 4 345 342 342 338 341 343 344 342 343 341 343 349 345 343
25 10 5 7 5 358 353 353 359 10 9 6 4 2 359 357 2 2 2 5 6 2 356 4 0 358 356 346 334 332 337 337 336 335 339 343 343 338
11 17 5 2 356 350 347 348 354 356 355 354 356 359 1 360 360 357 356 357 358 356 359 2 3 0 358 355 349 340 329 330 332 330 328 327 327 325
347 352 353 347 343 340 339 339 342 345 347 347 349 352 354 354 353 354 350 351 353 353 357 358 1 1 358 357 354 348 344 332 325 323 322 321 321 322
331 336 334 334 333 333 333 335 336 337 338 340 343 344 345 348 348 349 348 345 344 346 348 351 353 354 353 348 344 343 341 338 335 329 322 318 318 319
319 317 319 320 320 323 325 327 329 330 332 335 336 338 340 343 344 344 344 342 341 343 345 345 342 338 337 338 341 335 333 330 330 327 326 319 315 317
312 310 312 312 312 313 316 321 324 328 330 332 333 335 338 341 342 341 340 338 339 342 344 344 344 340 332 328 330 332 330 327 324 323 323 321 319 316
311 308 308 310 314 314 314 319 324 328 328 330 331 333 336 337 338 339 340 339 338 341 339 340 340 337 332 327 324 329 331 329 325 322 323 323 321 319
309 311 310 309 314 317 317 319 322 324 325 328 331 333 334 336 336 339 339 340 338 337 335 335 336 337 336 335 327 326 327 329 328 328 323 319 316 316
307 306 310 311 315 317 318 320 322 322 325 327 331 334 335 336 336 337 338 337 337 337 336 336 336 335 333 330 326 324 323 327 328 326 326 325 319 312
314 311 311 314 319 320 320 320 321 323 326 329 332 333 334 332 335 336 337 337 337 335 335 333 334 334 331 328 325 324 324 324 324 322 323 323 321 320